Location: Lake Zurich
(42.1970°N, 88.0930°W)
Time: 04:28:11
(UTC-05:00)

Amateur Radio Satellites - All Passes

Search period start: 05 July 2015 03:58
Search period end: 06 July 2015 03:58
Location: Lake Zurich, 42.1970°N, 88.0930°W

Satellite Date Start Highest point End Downlink Frequencies (MHz)
Time Altitude Azimuth
MOZHAYETS 4 05 Jul 03:58:52 04:03:01 36° 71° (ENE) 04:07:17
Oscar 19 05 Jul 04:13:59 04:16:16 13° 300° (WNW) 04:18:19 437.125/150
Gurwin Techsat 1B 05 Jul 04:22:08 04:26:52 33° 292° (WNW) 04:31:32 435.225
ITAMSAT 1 05 Jul 04:24:53 04:29:31 32° 293° (WNW) 04:34:03 435.822/435.867
HORYU 2 05 Jul 04:29:06 04:33:26 49° 100° (E) 04:37:48 437.375
STARS 05 Jul 04:29:40 04:32:44 18° 268° (W) 04:35:40 437.465
Cosmos 2491 05 Jul 04:46:58 04:52:46 19° 281° (W) 04:58:04 435.465 / 435.565
Cosmos 2504 05 Jul 04:52:30 04:57:30 23° 84° (E) 05:02:45 435.465 / 435.565
JAS-2 05 Jul 05:13:49 05:20:10 51° 289° (WNW) 05:27:12 435.910
YUBILEINY 05 Jul 05:20:32 05:27:57 29° 294° (WNW) 05:35:11 435.215
MOZHAYETS 4 05 Jul 05:36:45 05:40:24 22° 268° (W) 05:43:58
STRAND 1 05 Jul 05:38:56 05:41:49 16° 61° (ENE) 05:44:55 437.568
AO-7 05 Jul 05:40:58 05:49:19 70° 292° (WNW) 05:57:34 29.400- 29.500
Cubesat XI-IV 05 Jul 06:00:33 06:03:33 16° 88° (E) 06:06:48 437.490
PRISM 05 Jul 06:01:51 06:04:42 19° 66° (ENE) 06:07:42 437.425
CUBESAT XI-V 05 Jul 06:03:48 06:08:26 63° 74° (ENE) 06:13:08 437.345
HORYU 2 05 Jul 06:06:46 06:09:44 17° 295° (WNW) 06:12:34 437.375
RS-15 05 Jul 06:14:13 06:23:04 25° 345° (NNW) 06:32:03 29.354- 29.394
O/OREOS (USA 219) 05 Jul 06:21:14 06:22:52 12° 100° (E) 06:24:45 437.305
BEESAT 3 05 Jul 06:21:19 06:23:48 16° 112° (ESE) 06:26:27 437.485
BEESAT 2 05 Jul 06:34:16 06:36:59 18° 112° (ESE) 06:39:50 435.950
DANDE 05 Jul 06:39:17 06:40:47 11° 89° (E) 06:42:38 436.750
Cosmos 2504 05 Jul 06:42:20 06:49:11 60° 282° (WNW) 06:56:02 435.465 / 435.565
CUTE-I 05 Jul 07:04:28 07:09:46 60° 100° (E) 07:15:03 437.470
CUSAT 1 05 Jul 07:09:22 07:14:26 26° 95° (E) 07:18:41 437.405
STRAND 1 05 Jul 07:15:21 07:20:29 73° 257° (WSW) 07:25:41 437.568
ISS 05 Jul 07:29:56 07:32:36 24° 136° (SE) 07:35:19 145.825
AO-7 05 Jul 07:35:40 07:40:48 17° 312° (NW) 07:45:35 29.400- 29.500
PRISM 05 Jul 07:35:57 07:39:53 39° 262° (W) 07:43:51 437.425
Cubesat XI-IV 05 Jul 07:38:54 07:44:16 69° 287° (WNW) 07:49:35 437.490
CUBESAT XI-V 05 Jul 07:43:50 07:46:23 14° 272° (W) 07:48:42 437.345
VERMONT LUNAR 05 Jul 07:51:14 07:54:03 31° 161° (SSE) 07:56:53 437.305
AIST 2 05 Jul 07:56:32 08:00:20 33° 116° (ESE) 08:04:12 435.215
O/OREOS (USA 219) 05 Jul 07:57:22 08:01:48 64° 295° (WNW) 08:06:15 437.305
BEESAT 3 05 Jul 07:57:27 08:01:25 48° 308° (NW) 08:05:25 437.485
GONETS M04 05 Jul 08:00:21 08:06:59 26° 83° (E) 08:13:54
AUBIESAT-1 05 Jul 08:05:09 08:08:13 35° 67° (ENE) 08:11:27 437.475
BEESAT 2 05 Jul 08:10:47 08:14:44 45° 308° (NW) 08:18:45 435.950
BRITE-PL 05 Jul 08:11:44 08:15:26 28° 94° (E) 08:19:03 437.365/2234.400
DANDE 05 Jul 08:16:31 08:23:45 77° 99° (E) 08:29:15 436.750
PHONESAT 2.4 05 Jul 08:20:40 08:22:44 15° 151° (SSE) 08:24:52 2401.200-2431.200
DOVE 4 05 Jul 08:24:42 08:26:43 14° 89° (E) 08:28:56 437.250
RS-15 05 Jul 08:31:21 08:40:33 27° 19° (NNE) 08:50:14 29.354- 29.394
CUTE 1.7 + AOD 2 05 Jul 08:32:52 08:35:27 16° 90° (E) 08:38:12 437.475
CANX-2 05 Jul 08:36:00 08:39:02 19° 92° (E) 08:42:12 2200.000
M-CUBED/EXP-1 PRIME 05 Jul 08:40:03 08:43:18 61° 253° (WSW) 08:46:44 437.505
CUTE-I 05 Jul 08:45:35 08:49:26 20° 297° (WNW) 08:53:07 437.470
CUSAT 1 05 Jul 08:51:04 08:57:00 40° 283° (WNW) 09:01:34 437.405
HO-68 05 Jul 09:02:58 09:09:41 43° 98° (E) 09:16:26 435.675
CINEMA 3 05 Jul 09:03:57 09:06:38 17° 91° (E) 09:09:31 145.822/145.860
ISS 05 Jul 09:05:45 09:08:52 42° 332° (NNW) 09:11:59 145.825
SEEDS 05 Jul 09:18:47 09:22:49 41° 98° (E) 09:26:52 437.485
ANTELSAT 05 Jul 09:20:43 09:22:39 13° 64° (ENE) 09:24:46 437.575/2403.000
GOMX 1 05 Jul 09:20:45 09:24:59 83° 281° (WNW) 09:29:07 467.674
VERMONT LUNAR 05 Jul 09:27:39 09:30:45 64° 177° (S) 09:33:52 437.305
AAUSAT CUBESAT 2 05 Jul 09:27:54 09:31:46 34° 97° (E) 09:35:39 437.432
TIGRISAT 05 Jul 09:31:54 09:34:33 17° 66° (ENE) 09:37:19 435.000
Cosmos 2499 05 Jul 09:35:12 09:39:13 17° 81° (E) 09:43:39 435.465 / 435.565
AIST 2 05 Jul 09:35:12 09:38:56 28° 313° (NW) 09:42:39 435.215
DELFI C3 05 Jul 09:39:03 09:41:06 14° 90° (E) 09:43:21 145.870
AUBIESAT-1 05 Jul 09:41:45 09:43:17 12° 265° (W) 09:44:41 437.475
ZACube-1 05 Jul 09:45:40 09:47:56 14° 90° (E) 09:50:25 437.345
CUBEBUG 2 05 Jul 09:46:13 09:49:37 24° 94° (E) 09:53:08 437.445
BRITE-PL 05 Jul 09:50:24 09:53:56 24° 292° (WNW) 09:57:15 437.365/2234.400
Oscar 11 05 Jul 09:51:33 09:55:20 29° 95° (E) 09:59:09 145.826/435.025
GONETS M04 05 Jul 09:54:24 10:03:10 69° 281° (WNW) 10:11:55
COMPASS 1 05 Jul 09:54:31 09:58:46 83° 102° (ESE) 10:03:00 437.405
PHONESAT 2.4 05 Jul 09:56:59 10:00:18 46° 166° (SSE) 10:03:37 2401.200-2431.200
DOVE 4 05 Jul 10:00:52 10:04:52 47° 287° (WNW) 10:08:53 437.250
DANDE 05 Jul 10:02:50 10:07:10 17° 291° (WNW) 10:10:39 436.750
CUTE 1.7 + AOD 2 05 Jul 10:07:32 10:11:39 45° 287° (WNW) 10:15:45 437.475
QB50P2 05 Jul 10:08:01 10:10:51 18° 66° (ENE) 10:13:48 145.880/145.840
POPSAT HIP 1 05 Jul 10:08:34 10:11:21 18° 66° (ENE) 10:14:16 437.405
UNISAT 6 05 Jul 10:10:25 10:14:27 43° 72° (ENE) 10:18:31 437.425
CANX-2 05 Jul 10:11:08 10:15:08 38° 288° (WNW) 10:19:05 2200.000
FUNcube-1 05 Jul 10:20:14 10:24:04 33° 97° (E) 10:28:00 145.935
UWE-3 05 Jul 10:34:54 10:39:06 66° 101° (E) 10:43:23 435.000/436.395/437.385
CINEMA 3 05 Jul 10:40:10 10:44:05 39° 288° (WNW) 10:48:02 145.822/145.860
ISS 05 Jul 10:43:40 10:45:53 17° 352° (N) 10:48:05 145.825
RS-15 05 Jul 10:44:28 10:56:00 63° 49° (NE) 11:08:03 29.354- 29.394
QB50P1 05 Jul 10:46:04 10:50:06 44° 72° (ENE) 10:54:09 145.935-145.965
HO-68 05 Jul 10:50:50 10:57:23 39° 296° (WNW) 11:03:50 435.675
ANTELSAT 05 Jul 10:54:46 10:59:01 60° 259° (W) 11:03:15 437.575/2403.000
SEEDS 05 Jul 10:55:21 10:58:21 18° 293° (WNW) 11:01:14 437.485
NANOSAT C BR1 05 Jul 10:59:45 11:03:55 62° 74° (ENE) 11:08:06 145.865
VELOX 1 05 Jul 10:59:59 11:02:57 18° 91° (E) 11:06:03 145.980
AAUSAT CUBESAT 2 05 Jul 11:03:58 11:07:11 21° 292° (WNW) 11:10:17 437.432
VERMONT LUNAR 05 Jul 11:04:30 11:07:30 44° 194° (SSW) 11:10:32 437.305
DX 1 05 Jul 11:05:12 11:09:13 36° 97° (E) 11:13:14 434.975-435.025
DUCHIFAT 1 05 Jul 11:06:19 11:10:32 72° 76° (ENE) 11:14:45 145.980
TIGRISAT 05 Jul 11:06:53 11:11:00 45° 261° (W) 11:15:06 435.000
50 SAT 05 Jul 11:12:34 11:15:54 27° 95° (E) 11:19:18 437.505
DELFI C3 05 Jul 11:12:34 11:16:31 47° 287° (WNW) 11:20:25 145.870
POLYITAN 1 05 Jul 11:12:35 11:16:50 89° 77° (ENE) 11:21:05 437.675
BUGSAT 1 05 Jul 11:19:11 11:23:23 67° 75° (ENE) 11:27:33 437.445
ZACube-1 05 Jul 11:20:32 11:24:37 49° 287° (WNW) 11:28:46 437.345
CUBEBUG 2 05 Jul 11:22:39 11:26:20 29° 290° (WNW) 11:30:02 437.445
Cosmos 2499 05 Jul 11:24:28 11:31:32 78° 279° (W) 11:38:44 435.465 / 435.565
UKube-1 05 Jul 11:24:33 11:28:48 55° 100° (E) 11:33:03 .
Oscar 11 05 Jul 11:27:47 11:31:26 26° 291° (WNW) 11:35:02 145.826/435.025
HUMSAT D 05 Jul 11:31:39 11:35:50 86° 286° (WNW) 11:40:03 437.325/437.525
PHONESAT 2.4 05 Jul 11:34:45 11:38:10 66° 184° (S) 11:41:36 2401.200-2431.200
QB50P2 05 Jul 11:42:26 11:46:29 41° 262° (W) 11:50:30 145.880/145.840
POPSAT HIP 1 05 Jul 11:42:54 11:46:57 42° 262° (W) 11:50:59 437.405
AISAT 05 Jul 11:46:24 11:50:46 59° 100° (E) 11:55:06 437.250
UNISAT 6 05 Jul 11:48:41 11:51:31 16° 269° (W) 11:54:10 437.425
FUNcube-1 05 Jul 11:56:58 12:00:15 22° 292° (WNW) 12:03:28 145.935
GONETS M04 05 Jul 11:57:32 12:02:08 14° 306° (NW) 12:06:09
CUBEBUG 1 05 Jul 12:01:21 12:05:34 45° 99° (E) 12:09:44 437.445
Oscar 19 05 Jul 12:12:42 12:16:00 18° 63° (ENE) 12:19:28 437.125/150
UWE-3 05 Jul 12:13:28 12:15:11 12° 296° (WNW) 12:16:44 435.000/436.395/437.385
ISS 05 Jul 12:20:49 12:23:10 18° 12° (NNE) 12:25:32 145.825
ESTCUBE 1 05 Jul 12:21:51 12:26:26 89° 252° (WSW) 12:30:57 437.505/2401.250
QB50P1 05 Jul 12:23:29 12:26:13 16° 269° (W) 12:28:49 145.935-145.965
VELOX 1 05 Jul 12:35:34 12:39:45 42° 289° (WNW) 12:43:54 145.980
NANOSAT C BR1 05 Jul 12:38:41 12:40:15 11° 272° (W) 12:41:33 145.865
DX 1 05 Jul 12:41:56 12:45:16 21° 294° (WNW) 12:48:29 434.975-435.025
VERMONT LUNAR 05 Jul 12:42:13 12:44:00 14° 209° (SSW) 12:45:44 437.305
50 SAT 05 Jul 12:47:19 12:50:26 23° 291° (WNW) 12:53:30 437.505
RS-15 05 Jul 12:57:23 13:08:12 43° 250° (WSW) 13:19:07 29.354- 29.394
BUGSAT 1 05 Jul 12:58:17 12:59:21 11° 272° (W) 13:00:10 437.445
SPROUT 05 Jul 12:59:31 13:03:44 58° 100° (E) 13:07:57 437.525
UKube-1 05 Jul 13:02:01 13:04:32 15° 296° (WNW) 13:06:54 .
PHONESAT 2.4 05 Jul 13:12:47 13:15:59 35° 199° (SSW) 13:19:10 2401.200-2431.200
Cosmos 2499 05 Jul 13:22:54 13:26:15 13° 303° (WNW) 13:29:11 435.465 / 435.565
AISAT 05 Jul 13:24:27 13:26:55 14° 297° (WNW) 13:29:12 437.250
YUBILEINY 05 Jul 13:31:40 13:39:12 32° 67° (ENE) 13:46:55 435.215
TISAT 1 05 Jul 13:37:09 13:41:22 81° 282° (WNW) 13:45:31 437.305
CUBEBUG 1 05 Jul 13:38:39 13:41:36 17° 295° (WNW) 13:44:24 437.445
JAS-2 05 Jul 13:47:26 13:48:16 10° 56° (NE) 13:49:24 435.910
Oscar 19 05 Jul 13:49:50 13:54:56 61° 260° (W) 14:00:01 437.125/150
Cosmos 2491 05 Jul 13:56:21 14:02:06 21° 80° (E) 14:08:16 435.465 / 435.565
ISS 05 Jul 13:56:51 14:00:04 59° 31° (NNE) 14:03:16 145.825
ESTCUBE 1 05 Jul 14:01:58 14:02:38 10° 299° (WNW) 14:03:03 437.505/2401.250
Gurwin Techsat 1B 05 Jul 14:03:35 14:08:44 54° 72° (ENE) 14:13:56 435.225
ITAMSAT 1 05 Jul 14:03:39 14:08:41 53° 72° (ENE) 14:13:48 435.822/435.867
BEESAT 05 Jul 14:31:16 14:36:01 58° 101° (E) 14:40:45 436.000
SPROUT 05 Jul 14:37:08 14:39:23 14° 296° (WNW) 14:41:28 437.525
BEESAT 3 05 Jul 14:38:39 14:41:03 15° 39° (NE) 14:43:33 437.485
AIST 1 05 Jul 14:44:31 14:47:05 16° 87° (E) 14:49:51
SWISSCUBE 05 Jul 14:47:01 14:51:52 90° 233° (SW) 14:56:39 437.505
AO-7 05 Jul 14:48:31 14:56:00 40° 60° (ENE) 15:03:37 29.400- 29.500
PCSat 05 Jul 14:50:13 14:54:26 24° 109° (ESE) 14:58:47 145.827
BEESAT 2 05 Jul 14:52:15 14:54:52 16° 40° (NE) 14:57:33 435.950
ITUPSAT 1 05 Jul 14:52:51 14:57:42 88° 289° (WNW) 15:02:32 437.325
JAS-2 05 Jul 15:27:19 15:32:28 79° 75° (ENE) 15:37:56 435.910
HORYU 2 05 Jul 15:27:44 15:31:58 48° 72° (ENE) 15:36:15 437.375
KKS-1 05 Jul 15:28:00 15:32:08 38° 98° (E) 15:36:17 437.445
YUBILEINY 05 Jul 15:28:02 15:36:35 59° 269° (W) 15:45:06 435.215
ISS 05 Jul 15:34:01 15:36:11 17° 227° (SW) 15:38:18 145.825
ITAMSAT 1 05 Jul 15:44:44 15:48:34 20° 269° (W) 15:52:15 435.822/435.867
Gurwin Techsat 1B 05 Jul 15:45:15 15:49:07 20° 269° (W) 15:52:49 435.225
Cosmos 2491 05 Jul 15:49:10 15:58:01 83° 279° (W) 16:06:54 435.465 / 435.565
BEESAT 05 Jul 16:10:19 16:13:27 17° 297° (WNW) 16:16:25 436.000
BEESAT 3 05 Jul 16:15:26 16:19:30 70° 240° (WSW) 16:23:28 437.485
STARS 05 Jul 16:17:03 16:21:27 81° 105° (ESE) 16:25:49 437.465
AIST 2 05 Jul 16:17:40 16:21:18 27° 47° (NE) 16:24:55 435.215
AIST 1 05 Jul 16:20:10 16:24:24 45° 283° (WNW) 16:28:39
Cosmos 2504 05 Jul 16:26:33 16:33:37 43° 74° (ENE) 16:41:14 435.465 / 435.565
SO-50 05 Jul 16:26:53 16:31:20 44° 117° (ESE) 16:35:59 436.795
SWISSCUBE 05 Jul 16:27:26 16:29:03 11° 300° (WNW) 16:30:24 437.505
O/OREOS (USA 219) 05 Jul 16:27:53 16:31:46 28° 58° (ENE) 16:35:42 437.305
BEESAT 2 05 Jul 16:29:19 16:33:22 63° 240° (WSW) 16:37:20 435.950
PCSat 05 Jul 16:32:19 16:37:34 50° 306° (NW) 16:42:51 145.827
ITUPSAT 1 05 Jul 16:33:27 16:34:55 11° 300° (WNW) 16:36:09 437.325
AO-7 05 Jul 16:40:34 16:48:39 51° 260° (W) 16:56:44 29.400- 29.500
CUTE-I 05 Jul 16:49:56 16:52:43 15° 60° (ENE) 16:55:44 437.470
KKS-1 05 Jul 17:05:12 17:08:34 21° 294° (WNW) 17:11:48 437.445
HORYU 2 05 Jul 17:06:09 17:08:57 16° 270° (W) 17:11:34 437.375
JAS-2 05 Jul 17:16:41 17:18:35 11° 275° (W) 17:20:09 435.910
Cubesat XI-IV 05 Jul 17:22:31 17:26:59 28° 66° (ENE) 17:31:34 437.490
MOZHAYETS 4 05 Jul 17:29:59 17:34:41 83° 102° (ESE) 17:39:20
Cosmos 2491 05 Jul 17:50:41 17:56:34 18° 302° (WNW) 18:01:59 435.465 / 435.565
STARS 05 Jul 17:56:07 17:57:19 11° 298° (WNW) 17:58:17 437.465
AIST 2 05 Jul 17:56:07 17:59:54 32° 244° (WSW) 18:03:33 435.215
CUBESAT XI-V 05 Jul 18:01:28 18:04:05 15° 89° (E) 18:06:54 437.345
O/OREOS (USA 219) 05 Jul 18:07:12 18:11:11 30° 255° (WSW) 18:15:08 437.305
SO-50 05 Jul 18:07:56 18:12:04 28° 316° (NW) 18:16:16 436.795
GONETS M04 05 Jul 18:10:27 18:13:28 12° 52° (NE) 18:17:07
Cosmos 2504 05 Jul 18:18:55 18:25:46 38° 271° (W) 18:32:55 435.465 / 435.565
PCSat 05 Jul 18:20:53 18:22:26 11° 328° (NNW) 18:23:46 145.827
CUTE-I 05 Jul 18:26:48 18:32:10 82° 256° (WSW) 18:37:36 437.470
GOMX 1 05 Jul 18:53:38 18:55:59 14° 64° (ENE) 18:58:30 467.674
DANDE 05 Jul 18:58:58 19:01:34 33° 75° (ENE) 19:03:58 436.750
Cubesat XI-IV 05 Jul 19:01:54 19:06:56 40° 263° (W) 19:11:59 437.490
MOZHAYETS 4 05 Jul 19:09:35 19:11:18 12° 298° (WNW) 19:12:47
PRISM 05 Jul 19:17:52 19:21:22 26° 95° (E) 19:24:55 437.425
BRITE-PL 05 Jul 19:21:54 19:26:58 42° 72° (ENE) 19:31:45 437.365/2234.400
STRAND 1 05 Jul 19:25:37 19:30:22 37° 97° (E) 19:35:07 437.568
CUTE 1.7 + AOD 2 05 Jul 19:27:20 19:29:11 13° 64° (ENE) 19:31:14 437.475
CUSAT 1 05 Jul 19:28:27 19:30:51 31° 264° (W) 19:33:14 437.405
CANX-2 05 Jul 19:30:17 19:32:42 16° 65° (ENE) 19:35:17 2200.000
DOVE 4 05 Jul 19:30:27 19:33:38 19° 67° (ENE) 19:36:52 437.250
HO-68 05 Jul 19:32:23 19:38:36 35° 63° (ENE) 19:44:56 435.675
CUBESAT XI-V 05 Jul 19:37:21 19:41:58 56° 286° (WNW) 19:46:30 437.345
GONETS M04 05 Jul 20:04:03 20:12:40 63° 77° (ENE) 20:21:16
CINEMA 3 05 Jul 20:06:31 20:09:31 19° 67° (ENE) 20:12:35 145.822/145.860
SEEDS 05 Jul 20:11:27 20:15:06 30° 70° (ENE) 20:18:49 437.485
AAUSAT CUBESAT 2 05 Jul 20:19:26 20:22:48 25° 69° (ENE) 20:26:16 437.432
GOMX 1 05 Jul 20:28:33 20:33:42 76° 259° (W) 20:38:30 467.674
ZACube-1 05 Jul 20:43:14 20:45:02 13° 65° (ENE) 20:47:01 437.345
CUBEBUG 2 05 Jul 20:45:26 20:48:41 22° 68° (ENE) 20:51:58 437.445
COMPASS 1 05 Jul 20:45:57 20:50:02 59° 74° (ENE) 20:54:09 437.405
Oscar 11 05 Jul 20:47:07 20:50:33 24° 68° (ENE) 20:54:06 145.826/435.025
PRISM 05 Jul 20:53:12 20:56:47 27° 291° (WNW) 21:00:17 437.425
CUTE 1.7 + AOD 2 05 Jul 21:00:29 21:04:38 60° 259° (W) 21:08:51 437.475
BRITE-PL 05 Jul 21:01:05 21:05:36 26° 267° (W) 21:09:48 437.365/2234.400
CANX-2 05 Jul 21:04:11 21:08:16 49° 261° (W) 21:12:23 2200.000
STRAND 1 05 Jul 21:05:05 21:09:27 28° 294° (WNW) 21:13:44 437.568
DOVE 4 05 Jul 21:06:26 21:11:09 48° 261° (W) 21:15:36 437.250
Cosmos 2499 05 Jul 21:13:37 21:20:49 39° 72° (ENE) 21:28:37 435.465 / 435.565
FUNcube-1 05 Jul 21:16:48 21:20:21 28° 70° (ENE) 21:23:57 145.935
AUBIESAT-1 05 Jul 21:18:22 21:22:13 32° 102° (ESE) 21:26:19 437.475
HO-68 05 Jul 21:19:16 21:26:09 49° 261° (W) 21:33:02 435.675
UWE-3 05 Jul 21:32:32 21:36:41 56° 74° (ENE) 21:40:46 435.000/436.395/437.385
CINEMA 3 05 Jul 21:42:14 21:46:31 42° 262° (W) 21:50:37 145.822/145.860
SEEDS 05 Jul 21:47:35 21:50:56 23° 267° (W) 21:54:14 437.485
ESTCUBE 1 05 Jul 21:49:57 21:49:59 10° 61° (ENE) 21:50:18 437.505/2401.250
M-CUBED/EXP-1 PRIME 05 Jul 21:53:43 21:58:00 88° 107° (ESE) 22:02:35 437.505
AAUSAT CUBESAT 2 05 Jul 21:54:47 21:58:21 27° 266° (W) 22:01:52 437.432
50 SAT 05 Jul 21:58:01 22:00:28 17° 67° (ENE) 22:03:03 437.505
VELOX 1 05 Jul 21:58:20 22:01:22 19° 65° (ENE) 22:04:32 145.980
DELFI C3 05 Jul 21:59:47 22:03:47 75° 258° (WSW) 22:07:49 145.870
DX 1 05 Jul 22:01:13 22:05:11 35° 70° (ENE) 22:09:10 434.975-435.025
GONETS M04 05 Jul 22:01:49 22:08:59 29° 276° (W) 22:15:51
ZACube-1 05 Jul 22:16:50 22:20:59 59° 259° (W) 22:25:06 437.345
UKube-1 05 Jul 22:19:38 22:23:49 50° 72° (ENE) 22:28:03 .
CUBEBUG 2 05 Jul 22:21:23 22:25:15 32° 264° (W) 22:29:01 437.445
Oscar 11 05 Jul 22:22:49 22:26:39 30° 265° (W) 22:30:26 145.826/435.025
HUMSAT D 05 Jul 22:23:42 22:27:46 69° 76° (ENE) 22:31:51 437.325/437.525
COMPASS 1 05 Jul 22:24:33 22:26:10 12° 272° (W) 22:27:32 437.405
AISAT 05 Jul 22:44:23 22:48:45 56° 73° (ENE) 22:53:09 437.250
ANTELSAT 05 Jul 22:46:15 22:49:55 26° 94° (E) 22:53:43 437.575/2403.000
DUCHIFAT 1 05 Jul 22:53:05 22:54:00 11° 88° (E) 22:55:08 145.980
FUNcube-1 05 Jul 22:53:14 22:56:42 24° 266° (W) 23:00:04 145.935
AUBIESAT-1 05 Jul 22:53:15 22:56:52 27° 295° (WNW) 23:00:35 437.475
TIGRISAT 05 Jul 22:57:44 23:01:41 32° 97° (E) 23:05:44 435.000
CUBEBUG 1 05 Jul 22:57:46 23:01:56 41° 71° (ENE) 23:06:07 437.445
POLYITAN 1 05 Jul 22:59:01 23:01:08 14° 90° (E) 23:03:26 437.675
Cosmos 2499 05 Jul 23:06:40 23:14:06 45° 270° (W) 23:21:57 435.465 / 435.565
UWE-3 05 Jul 23:11:47 23:13:38 12° 271° (W) 23:15:16 435.000/436.395/437.385
SO-50 05 Jul 23:19:24 23:20:43 11° 29° (NNE) 23:22:12 436.795
ESTCUBE 1 05 Jul 23:21:39 23:26:11 88° 82° (E) 23:30:47 437.505/2401.250
QB50P2 05 Jul 23:27:17 23:30:57 29° 95° (E) 23:34:39 145.880/145.840
POPSAT HIP 1 05 Jul 23:27:39 23:31:16 28° 95° (E) 23:34:56 437.405
M-CUBED/EXP-1 PRIME 05 Jul 23:31:05 23:32:21 11° 302° (WNW) 23:33:24 437.505
50 SAT 05 Jul 23:31:19 23:34:52 35° 263° (W) 23:38:24 437.505
VELOX 1 05 Jul 23:33:20 23:37:37 45° 261° (W) 23:41:55 145.980
PCSat 05 Jul 23:36:43 23:41:08 25° 45° (NE) 23:45:38 145.827
UNISAT 6 05 Jul 23:37:48 23:42:14 88° 284° (WNW) 23:46:44 437.425
DX 1 05 Jul 23:38:03 23:41:31 22° 267° (W) 23:44:54 434.975-435.025
SPROUT 05 Jul 23:53:58 23:58:05 47° 73° (ENE) 00:02:15 437.525
UKube-1 05 Jul 23:57:40 00:00:18 15° 270° (W) 00:02:45 .
QB50P1 06 Jul 00:06:05 00:10:19 78° 102° (ESE) 00:14:31 145.935-145.965
SWISSCUBE 06 Jul 00:19:11 00:21:23 14° 61° (ENE) 00:23:49 437.505
NANOSAT C BR1 06 Jul 00:19:43 00:23:56 74° 285° (WNW) 00:28:06 145.865
ANTELSAT 06 Jul 00:22:51 00:26:43 30° 290° (WNW) 00:30:35 437.575/2403.000
AISAT 06 Jul 00:23:17 00:25:45 14° 271° (W) 00:28:00 437.250
ITUPSAT 1 06 Jul 00:25:07 00:27:27 14° 62° (ENE) 00:30:00 437.325
DUCHIFAT 1 06 Jul 00:26:09 00:30:19 64° 286° (WNW) 00:34:27 145.980
TISAT 1 06 Jul 00:29:21 00:33:35 79° 76° (ENE) 00:37:50 437.305
POLYITAN 1 06 Jul 00:33:18 00:37:24 50° 287° (WNW) 00:41:29 437.675
TIGRISAT 06 Jul 00:34:45 00:38:19 24° 292° (WNW) 00:41:50 435.000
CUBEBUG 1 06 Jul 00:35:16 00:38:29 19° 268° (W) 00:41:35 437.445
BUGSAT 1 06 Jul 00:36:17 00:40:21 74° 285° (WNW) 00:44:21 437.445
SO-50 06 Jul 00:57:44 01:02:33 47° 50° (NE) 01:07:17 436.795
QB50P2 06 Jul 01:03:17 01:06:46 25° 292° (WNW) 01:10:09 145.880/145.840
POPSAT HIP 1 06 Jul 01:03:35 01:07:04 25° 291° (WNW) 01:10:28 437.405
RS-15 06 Jul 01:10:25 01:19:29 34° 107° (ESE) 01:29:05 29.354- 29.394
PCSat 06 Jul 01:19:37 01:24:56 55° 245° (WSW) 01:30:12 145.827
SPROUT 06 Jul 01:31:49 01:34:29 15° 270° (W) 01:37:00 437.525
BEESAT 06 Jul 01:38:04 01:42:48 70° 75° (ENE) 01:47:36 436.000
QB50P1 06 Jul 01:44:53 01:45:37 10° 298° (WNW) 01:46:08 145.935-145.965
SWISSCUBE 06 Jul 01:53:54 01:58:41 75° 258° (WSW) 02:03:31 437.505
Cosmos 2491 06 Jul 01:59:10 02:07:37 51° 74° (ENE) 02:16:04 435.465 / 435.565
ITUPSAT 1 06 Jul 02:00:01 02:04:48 73° 258° (WSW) 02:09:38 437.325
Oscar 19 06 Jul 02:00:52 02:05:47 45° 98° (E) 02:10:42 437.125/150
ITAMSAT 1 06 Jul 02:17:04 02:20:27 18° 90° (E) 02:24:01 435.822/435.867
Gurwin Techsat 1B 06 Jul 02:20:04 02:23:55 21° 91° (E) 02:27:56 435.225
KKS-1 06 Jul 02:26:34 02:30:40 38° 71° (ENE) 02:34:49 437.445
AIST 1 06 Jul 02:26:43 02:30:54 44° 77° (ENE) 02:35:03
YUBILEINY 06 Jul 02:33:44 02:41:13 35° 86° (E) 02:48:53 435.215
JAS-2 06 Jul 02:37:08 02:39:09 12° 85° (E) 02:41:49 435.910
SO-50 06 Jul 02:38:53 02:42:51 24° 248° (WSW) 02:46:38 436.795
STARS 06 Jul 03:14:08 03:18:31 75° 75° (ENE) 03:22:55 437.465
BEESAT 06 Jul 03:19:04 03:21:15 13° 272° (W) 03:23:11 436.000
RS-15 06 Jul 03:20:13 03:31:07 70° 309° (NW) 03:42:25 29.354- 29.394
Oscar 19 06 Jul 03:40:50 03:44:53 23° 295° (WNW) 03:48:50 437.125/150
